RADFXSAT (FOX-1B)

Last updated on Thu Oct 30 2025 00:03:10 GMT+0000 (Coordinated Universal Time)

1 43017U 17073E 25302.12550165 .00014357 00000+0 69100-3 0 9998 2 43017 97.4995 169.3693 0166095 43.7860 317.6399 15.07441917430512
UTC large
Height (km)
Speed (km/s)
/
Latitude / Longitude
Inclination (degrees)
Orbital Period (minutes)
Azimuth
Elevation
Range (km)
Doppler Factor

Next 0 passes for location: London (51.5072 / 0.1276)

Sorry there are no passes over London.